User: anonymous   Login
Location: Fond Mahaut
(18.0707°N, 63.0465°W)
Time: 08:43:29
(UTC+00:00)
Language:

Meteor 2-4 Rocket - Orbit

View from above orbital plane
View from above orbital plane
View from above satellite
View from above satellite

Ground track
Ground track

The orbit data is extracted from the following two-line orbital elements,

1 11289U 79021B   20057.13350851 -.00000063  00000-0 -40101-4 0  9991
2 11289  81.2452 284.1787 0075233 322.1218  37.4673 14.11603153109646
Epoch (UTC): 26 February 2020 03:12:15
Eccentricity: 0.0075233
inclination: 81.2452°
perigee height: 799 km
apogee height: 908 km
right ascension of ascending node: 284.1787°
argument of perigee: 322.1218°
revolutions per day: 14.11603153
mean anomaly at epoch: 37.4673°
orbit number at epoch: 10964

The dashed part of the orbit path shows where the satellite is in the earth's shadow,  

DLR